カタログに戻る

TIANHUI 4A

運用中科学PO
NORAD 50572·PAYLOAD·🇨🇳 China

打ち上げ Dec 29, 2021 から Jiuquan Satellite Launch Center

Loading…

次のパス (今後24時間)

TLE

最新Source: Space-Track

元期: Sep 14, 2026, 10:15 UTC

1 50572U 21134A   26257.42761059  .00004927  00000-0  94919-4 0  9994
2 50572  88.9686 310.0170 0010969  78.4187 281.8304 15.47558522263661

AllMySatでTIANHUI 4Aをリアルタイム追跡

Download on the App Store